Location: Los Gatos B&B
(42.6926°N, 77.0646°W)
Time: 22:26:22
(UTC-04:00)

SL-16 R/B - Visible Passes

Search period start: 29 May 2015 00:00
Search period end: 08 June 2015 00:00
Orbit: 840 x 850 km, 71.0° (Epoch: 29 May)

Date Brightness Start Highest point End Pass type
(mag) Time Alt. Az. Time Alt. Az. Time Alt. Az.
29 May 4.6 01:44:47 10° W 01:48:22 16° NW 01:51:46 10° N visible
29 May 4.0 22:05:33 12° ESE 22:05:52 12° E 22:08:13 10° ENE visible
29 May 2.1 23:47:23 44° SSW 23:49:16 90° ESE 23:55:01 10° NNE visible
30 May 4.6 01:30:39 10° W 01:34:19 17° NW 01:37:49 10° N visible
30 May 4.0 21:51:01 11° ESE 21:51:52 12° E 21:53:58 10° ENE visible
30 May 2.1 23:32:50 37° SSW 23:35:15 87° ESE 23:40:59 10° NNE visible
31 May 4.6 01:16:30 10° W 01:20:15 17° NW 01:23:50 10° N visible
31 May 4.0 21:36:25 10° ESE 21:37:53 11° E 21:39:42 10° ENE visible
31 May 2.1 23:18:11 29° SSW 23:21:13 85° ESE 23:26:58 10° NNE visible
01 Jun 4.6 01:02:22 10° W 01:06:12 18° NW 01:09:52 10° N visible
01 Jun 4.1 21:22:48 10° ESE 21:23:52 11° E 21:25:21 10° E visible
01 Jun 2.1 23:03:20 21° SSW 23:07:12 82° ESE 23:12:57 10° NNE visible
02 Jun 4.6 00:48:14 10° W 00:52:09 18° NW 00:55:54 10° N visible
02 Jun 4.1 21:09:19 10° ESE 21:09:53 10° E 21:10:51 10° E visible
02 Jun 2.1 22:48:14 14° SSW 22:53:12 80° ESE 22:58:55 10° NNE visible
03 Jun 4.6 00:34:06 10° W 00:38:06 19° NW 00:41:56 10° N visible
03 Jun 2.1 22:33:31 10° SSW 22:39:11 77° ESE 22:44:54 10° NNE visible
04 Jun 4.6 00:19:59 10° W 00:24:03 19° NW 00:27:58 10° N visible
04 Jun 2.1 22:19:30 10° SSW 22:25:10 75° ESE 22:30:53 10° NNE visible
05 Jun 4.6 00:05:52 10° W 00:10:00 20° NW 00:14:00 10° N visible
05 Jun 2.2 22:05:30 10° SSW 22:11:09 72° ESE 22:16:51 10° NNE visible
05 Jun 4.7 23:51:45 10° W 23:55:57 20° NW 00:00:01 10° N visible
06 Jun 2.2 21:51:30 10° SSW 21:57:08 70° ESE 22:02:50 10° NNE visible
06 Jun 4.7 23:37:38 10° W 23:41:54 21° NW 23:46:03 10° N visible
07 Jun 2.2 21:37:30 10° SSW 21:43:07 68° ESE 21:48:48 10° NNE visible
07 Jun 4.7 23:23:31 10° W 23:27:51 21° NW 23:32:04 10° N visible
